Content
SEND FEEDBACK

Daily
Averages
Monthly
Summary
Greece

NAXOS, GREECE


Home > Europe > Greece
Elevation: 30 feet     Latitude: 37 06N     Longitude: 025 23E

WEATHER
 
SELECT A DAY
Number of Records: 92,947;   Date Range: 12/8/96 - 7/20/14
 
SHARE

PRINT THIS DATA

[ ← Previous Day ]
WEATHER ALMANAC - APRIL 21, 2013
[ Next Day → ]
[ °C ]   °F
Weather ElementAverageHighLow
Temperature60.9 °F62.6 °F (1:20 pm)57.2 °F (8:50 am)
Dewpoint43.3 °F46.4 °F (8:50 am)41 °F (6:20 pm)
Humidity52.5 %67 % (8:50 am)48 % (1:20 pm)
Barometer29.94 in29.95 in (9:50 am)29.92 in (8:50 am)
Wind Speed18.4 mph23 mph (11:20 am)
Wind Gust33.4 mph (10:50 am)
Weather ElementAverage
Visibility6.2 mi
Wind DirectionNNW (342.5 °)

Weather ElementTotal
Precipitation---
Heating Degree Days5.1 (Base 65)
Growing Degree Days9.9 (Base 50)
Averaged from 24 records on April 21, 2013
WEATHER CONDITIONS BREAKOUT
WIND DIRECTION BREAKOUT
WEATHER BY HOUR - APRIL 21, 2013
[ °C ]   °F
Local TimeTemperatureDewpointHumidityBarometerVisibilityWind DirectionWind SpeedGust SpeedPrecipitationEventsConditions
8:50 AM57.2 °F46.4 °F67 %29.92 in6.2 miNorth (350°)19.6 mph31.1 mphPartly Cloudy
9:50 AM59.0 °F44.6 °F59 %29.95 in6.2 miNorth (350°)20.7 mphPartly Cloudy
10:20 AM59.0 °F46.4 °F63 %29.95 in6.2 miNorth (350°)19.6 mphPartly Cloudy
10:50 AM60.8 °F44.6 °F55 %29.95 in6.2 miNorth (350°)21.9 mph33.4 mphPartly Cloudy
11:20 AM60.8 °F42.8 °F52 %29.95 in6.2 miNorth (350°)23.0 mphPartly Cloudy
11:50 AM60.8 °F42.8 °F52 %29.95 in6.2 miNorth (350°)20.7 mphPartly Cloudy
12:20 PM60.8 °F42.8 °F52 %29.95 in6.2 miNorth (350°)21.9 mphPartly Cloudy
12:50 PM60.8 °F42.8 °F52 %29.95 in6.2 miNorth (350°)20.7 mphPartly Cloudy
1:20 PM62.6 °F42.8 °F48 %29.95 in6.2 miNorth (350°)19.6 mphPartly Cloudy
1:50 PM62.6 °F42.8 °F48 %29.95 in6.2 miNorth (350°)17.3 mphPartly Cloudy
2:20 PM62.6 °F42.8 °F48 %29.95 in6.2 miNorth (350°)17.3 mph28.8 mphPartly Cloudy
2:50 PM62.6 °F42.8 °F48 %29.95 in6.2 miNNW (330°)20.7 mphPartly Cloudy
3:20 PM62.6 °F42.8 °F48 %29.95 in6.2 miNNW (340°)19.6 mphPartly Cloudy
3:50 PM62.6 °F42.8 °F48 %29.95 in6.2 miNNW (340°)21.9 mphPartly Cloudy
4:20 PM62.6 °F42.8 °F48 %29.95 in6.2 miNNW (340°)20.7 mphPartly Cloudy
4:50 PM62.6 °F42.8 °F48 %29.92 in6.2 miNNW (340°)19.6 mphPartly Cloudy
5:20 PM60.8 °F42.8 °F52 %29.92 in6.2 miNorth (350°)18.4 mphPartly Cloudy
5:50 PM60.8 °F42.8 °F52 %29.92 in6.2 miNNW (340°)17.3 mphPartly Cloudy
6:20 PM60.8 °F41.0 °F48 %29.92 in6.2 miNNW (330°)16.1 mphPartly Cloudy
6:50 PM60.8 °F42.8 °F52 %29.92 in6.2 miNW (320°)13.8 mphPartly Cloudy
7:20 PM60.8 °F42.8 °F52 %29.92 in6.2 miNNW (330°)12.7 mphPartly Cloudy
7:50 PM59.0 °F42.8 °F55 %29.92 in6.2 miNNW (330°)13.8 mphPartly Cloudy
8:20 PM59.0 °F42.8 °F55 %29.92 in6.2 miNNW (340°)12.7 mphPartly Cloudy
8:50 PM59.0 °F44.6 °F59 %29.92 in6.2 miNNW (340°)12.7 mphPartly Cloudy
Hourly data recorded from LGNX, located miles away from Naxos, Greece







STORIES FROM OUR PARTNERS